Regional Weather Roundup
Issued by NWS

Home | Current Version | Previous Version | Text Only | Print | Product List | Glossary Off
Versions: 1 2 3 4 5 6 7 8 9 10 11 12 13 14 15 16 17 18 19 20 21 22 23 24 25 26 27 28 29 30 31 32 33 34 35 36 37 38 39 40 41 42 43 44 45 46 47 48 49 50

000
ASUS43 KMPX 240710
RWRMN
WEATHER ROUNDUP FOR MINNESOTA
NATIONAL WEATHER SERVICE TWIN CITIES/CHANHASSEN MN
100 AM CST MON NOV 24 2014


NOTE: "FAIR" INDICATES FEW OR NO CLOUDS BELOW 12,000 FEET WITH NO
SIGNIFICANT WEATHER AND/OR OBSTRUCTIONS TO VISIBILITY. N/A MEANS
CURRENT SKY AND/OR WEATHER CONDITIONS ARE NOT AVAILABLE.

MNZ060>063-068>070-240800-
   Twin Cities Metro

CITY           SKY/WX    TMP DP  RH WIND       PRES   REMARKS
TWIN CITIES    LGT SNOW  31  29  92 NW13      29.31F FOG     WCI  21
ST PAUL        LGT SNOW  32  30  92 NW13      29.32F FOG     WCI  22
CRYSTAL        LGT SNOW  33  29  85 NW14      29.31F FOG     WCI  23
BLAINE         CLOUDY    34  34 100 W13       29.30F WCI  25
LAKEVILLE      LGT SNOW  28  28 100 W14G22    29.31F WCI  17
EDEN PRAIRIE   LGT SNOW  32  27  81 NW14      29.32F WCI  22
SOUTH ST PAUL  LGT SNOW  32  31  95 NW9       29.30F WCI  25
LAKE ELMO      CLOUDY    32  32 100 NW12      29.30F FOG     WCI  23
$$
MNZ001>005-007-008-013>017-022>024-027-028-240800-
   Northwest Minnesota

CITY           SKY/WX    TMP DP  RH WIND       PRES   REMARKS
BEMIDJI        CLOUDY    19  17  94 W15       29.42F WCI   5
HALLOCK        FLURRIES  14   9  79 N23G30    29.60S WCI  -5
ROSEAU         CLOUDY    19  14  79 NW20      29.50S HAZE    WCI   4
WARROAD        CLOUDY    19  16  86 NW14G22   29.47S FOG     WCI   6
THIEF RVR FALL CLOUDY    16  10  79 NW17      29.52S WCI   0
CROOKSTON      LGT SNOW  16  12  86 N22       29.58S WCI  -2
FOSSTON        LGT SNOW  14  12  92 NW9G17    29.50S WCI   2
DETROIT LAKES  MIX PCPN  18  16  93 NW21G30   29.49F WCI   1
MOORHEAD       LGT SNOW  18  16  93 N21G29    29.57F WCI   1
PARK RAPIDS    CLOUDY    19  15  84 NW15      29.42S WCI   5
MAHNOMEN       LGT SNOW  15  12  88 NW20      29.50F WCI  -2
$$
MNZ006-009>011-018-025>026-240800-
   North Central Minnesota

CITY           SKY/WX    TMP DP  RH WIND       PRES   REMARKS
BAUDETTE       FRZ RAIN  24  22  91 NW17G23   29.41F FOG     WCI  11
FLAG ISLAND    CLOUDY    23  21  93 N20       29.47R WCI   8
INTL FALLS     LGT SNOW  33  31  92 NW8       29.35F FOG     WCI  26
WASKISH        CLOUDY    25  23  93 W12       29.42S WCI  14
BIG FORK       MIX PCPN  28  27  93 NW6       29.35F WCI  22
LONGVILLE      CLOUDY    21  21 100 W9G18     29.39F WCI  11
GRAND RAPIDS   CLOUDY    28  27  93 NW16G24   29.33F WCI  17
CRANE LAKE     LGT SNOW  32  30  93 NW6       29.33F WCI  26
ORR            MIX PCPN  32  30  93 NW6       29.29F WCI  26
COOK           LGT SNOW  32  32 100 NW5       29.30F WCI  27
WALKER         CLOUDY    19  18  93 NW10      29.41F WCI   8
$$
MNZ012-019>021-037-240800-
   Northeast Minnesota

CITY           SKY/WX    TMP DP  RH WIND       PRES   REMARKS
DULUTH         LGT SNOW  34  32  92 NW12G20   29.24F FOG     WCI  25
ELY            LGT SNOW  32  32 100 NW6       29.27F WCI  26
HIBBING        CLOUDY    34  31  88 N13       29.28F WCI  25
EVELETH        FLURRIES  34  32  93 N5        29.28F WCI  30
DULUTH HARBOR  DRIZZLE   37  34  87 CALM      29.27F
TWO HARBORS    DRIZZLE   37  34  87 NW6       29.21F
SILVER BAY     RAIN      37  34  87 NW6       29.21F
GRAND MARAIS     N/A     40  35  83 N14G23    29.19F
G MARAIS ARPRT DRIZZLE   34  30  86 N9G18     29.19F WCI  26
$$
MNZ029>031-032-039>041-046>048-054>057-064-240800-
   West Central Minnesota

CITY           SKY/WX    TMP DP  RH WIND       PRES   REMARKS
FERGUS FALLS   CLOUDY    18  12  79 N22G38    29.54S WCI   0
WHEATON        CLOUDY    18  12  79 NW21G28   29.56F WCI   1
MORRIS           N/A     19  16  86 NW22G30   29.48F WCI   3
ALEXANDRIA     CLOUDY    20  16  84 NW22G29   29.44S WCI   3
ELBOW LAKE       N/A     18  15  88 NW24G30   29.49S WCI   0
WADENA         CLOUDY    18  16  93 NW17G23   29.43F WCI   2
GLENWOOD       PTCLDY    21  19  93 NW21G28   29.43S WCI   6
APPLETON       CLOUDY    21  18  86 NW25G36   29.51S WCI   4
BENSON         CLOUDY    19  18  93 N25       29.47S WCI   2
ORTONVILLE     FLURRIES  19  14  79 NW23      29.52F WCI   2
MADISON        CLEAR     25  19  80 NW22      29.52F WCI  10
WILLMAR        CLOUDY    25  21  86 NW22G32   29.45R WCI  10
$$
MNZ033>034-036-042>043-049>051-058-059-240800-
   Central Minnesota

CITY           SKY/WX    TMP DP  RH WIND       PRES   REMARKS
ST CLOUD       CLOUDY    32  25  75 NW18G28   29.35F WCI  20
SAUK CENTRE    CLOUDY    23  20  88 NW22      29.40S WCI   7
PAYNESVILLE    CLOUDY    24  22  91 W21G29    29.40F WCI  10
AITKIN         CLOUDY    32  27  80 NW10G21   29.32F HAZE    WCI  24
PINE RIVER     CLOUDY    25  21  86 NW12      29.43S WCI  14
BRAINERD       CLOUDY    28  25  88 NW15      29.37S WCI  16
STAPLES        CLOUDY    19  18  93 NW18      29.41S WCI   4
LONG PRAIRIE   CLOUDY    21  19  93 NW18G25   29.41S WCI   6
LITTLE FALLS   CLOUDY    28  23  80 NW13G18   29.38S WCI  18
LITCHFIELD     CLOUDY    28  27  93 NW16G30   29.38F WCI  17
BUFFALO        CLOUDY    31  26  79 W9G16     29.35F WCI  23
MAPLE LAKE     CLOUDY    32  28  84 W14G20    29.36S WCI  22
$$
MNZ037-044-045-052-053-240800-
   East Central Minnesota

CITY           SKY/WX    TMP DP  RH WIND       PRES   REMARKS
PRINCETON      CLOUDY    34  28  80 W13       29.33F WCI  25
MORA           CLOUDY    32  30  93 NW12      29.32F WCI  23
CAMBRIDGE      LGT SNOW  34  27  75 NW9       29.30F WCI  26
RUSH CITY      LGT RAIN  32  32  97 NW10G16   29.30F WCI  24
MOOSE LAKE     DRIZZLE   34  32  93 N9        29.26F WCI  26
HINCKLEY       RAIN      36  34  93 NW9       29.29F
CLOQUET        LGT SNOW  34  32  93 NW12G18   29.26F WCI  25
MCGREGOR       CLOUDY    32  32 100 NW12G17   29.32F WCI  23
$$
MNZ071>073-080-081-089-090-097-098-240800-
   Southwest Minnesota

CITY           SKY/WX    TMP DP  RH WIND       PRES   REMARKS
MONTEVIDEO     CLOUDY    21  19  93 N23G31    29.49F WCI   5
GRANITE FALLS  CLOUDY    23  21  93 NW23G30   29.49F WCI   7
CANBY          CLOUDY    22  17  81 NW17G28   29.53F WCI   8
MARSHALL       CLOUDY    21  16  79 NW28G35   29.48F WCI   3
REDWOOD FALLS  CLOUDY    25  22  88 NW23G36   29.44F WCI  10
OLIVIA         CLOUDY    27  23  86 NW22G38   29.42S WCI  12
PIPESTONE      CLOUDY    21  16  79 NW17G29   29.48F WCI   7
WINDOM         CLOUDY    25  21  86 NW26G33   29.43S WCI   9
WORTHINGTON    CLOUDY    25  19  80 NW25      29.45F WCI   9
JACKSON        CLOUDY    27  23  86 NW26G35   29.42F WCI  11
TRACY          CLOUDY    24  21  90 NW25      29.47F WCI   7
SLAYTON        CLOUDY    23  19  87 NW28      29.46F WCI   5
$$
MNZ065>067-074>077-082>085-091>093-240800-
   South Central Minnesota

CITY           SKY/WX    TMP DP  RH WIND       PRES   REMARKS
MANKATO        CLOUDY    28  21  74 NW22      29.36F WCI  15
NEW ULM        CLOUDY    27  25  93 NW28G35   29.39F WCI  11
ST JAMES       CLOUDY    27  25  93 W21G39    29.42S WCI  13
FAIRMONT       CLOUDY    27  19  74 NW28G36   29.39S WCI  11
GLENCOE        CLOUDY    31  28  86 W22       29.35F WCI  18
FARIBAULT      LGT SNOW  30  28  93 NW15G22   29.32F WCI  19
OWATONNA       LGT SNOW  30  28  93 NW16G23   29.32F WCI  19
WASECA         CLOUDY    32  27  80 NW21G32   29.35F WCI  20
ALBERT LEA     LGT SNOW  30  28  93 NW18G30   29.31F WCI  18
$$
MNZ078>079-086>088-094>096-240800-
   Southeast Minnesota

CITY           SKY/WX    TMP DP  RH WIND       PRES   REMARKS
ROCHESTER      CLOUDY    32  30  92 NW24      29.25F WCI  19
RED WING         N/A     36  34  93 NW10      29.27F
STANTON        LGT SNOW  32  30  92 NW15      29.29F WCI  22
DODGE CENTER   LGT SNOW  30  30 100 NW20G26   29.27F WCI  18
WINONA         CLOUDY    37  36  93 NW13G21   29.21F
AUSTIN         LGT SNOW  30  28  93 NW24      29.28F WCI  16
PRESTON        LGT RAIN  32  31  97 NW20G28   29.23S WCI  20
$$
ABBREVIATIONS USED IN REMARKS
   TC - TEMPERATURES IN CELSIUS
  WCI - WIND CHILL INDEX
   HX - HEAT INDEX
  VSB - VISIBILITY
$$



USA.gov is the U.S. government's official web portal to all federal, state and local government web resources and services.